CW5020 Weather Reports


Display with metric or nautical units.
time (UTC)temp
F
wind
direction
speed
MPH
gust
MPH
rain 1hr
in
rain 24hr
in
rain mn
in
humidity
%
barometer
mb
20260505124507 44 279 0.0 0.0 0.01 0.32 0.01 85 1008.4
20260505124005 45 279 0.0 1.0 0.01 0.32 0.01 84 1008.7
20260505123505 45 279 0.0 1.0 0.01 0.32 0.01 84 1008.8
20260505123006 45 279 0.0 0.0 0.01 0.32 0.01 83 1008.2
20260505122506 45 279 0.0 0.0 0.00 0.31 0.00 82 1008.5
20260505122005 45 279 0.0 1.0 0.00 0.31 0.00 80 1008.5
20260505121504 45 279 0.0 1.0 0.00 0.31 0.00 78 1008.5
20260505121005 45 279 0.0 1.0 0.00 0.31 0.00 76 1008.5
20260505120010 46 279 0.0 1.0 0.00 0.31 0.00 73 1008.9
20260505115506 47 279 1.0 4.0 0.00 0.31 0.00 72 1008.5
20260505115006 47 279 1.0 4.0 0.00 0.31 0.00 70 1008.2
20260505114506 48 275 1.0 6.0 0.00 0.31 0.00 66 1007.8
20260505114006 48 275 1.0 6.0 0.00 0.31 0.00 63 1007.7
20260505113505 49 278 2.0 9.0 0.00 0.31 0.00 60 1007.3
20260505113006 49 309 2.0 9.0 0.00 0.31 0.00 57 1007.6
20260505112009 50 280 1.0 7.0 0.00 0.31 0.00 54 1006.9
20260505111506 50 307 1.0 5.0 0.00 0.31 0.00 52 1006.7
20260505111006 50 283 1.0 6.0 0.00 0.31 0.00 54 1006.4
20260505102007 51 36 1.0 3.0 0.00 0.31 0.00 55 1005.5
20260505101008 51 312 0.0 2.0 0.00 0.31 0.00 60 1005.9
20260505100507 51 30 1.0 5.0 0.00 0.31 0.00 56 1005.6
20260505100008 51 34 1.0 5.0 0.00 0.31 0.00 55 1005.7
20260505095506 51 333 1.0 4.0 0.00 0.31 0.00 59 1005.7
20260505095005 52 51 1.0 4.0 0.00 0.31 0.00 54 1005.8
20260505094507 52 63 1.0 8.0 0.00 0.31 0.00 55 1006.0
20260505094007 52 302 2.0 8.0 0.00 0.31 0.00 53 1005.9
20260505093506 52 311 1.0 5.0 0.00 0.31 0.00 50 1005.8
20260505093005 52 281 1.0 5.0 0.00 0.31 0.00 52 1005.6
20260505092506 53 277 1.0 5.0 0.00 0.31 0.00 50 1005.8
20260505090007 54 330 1.0 4.0 0.00 0.31 0.00 51 1005.5
20260505085506 54 311 2.0 8.0 0.00 0.31 0.00 48 1005.3
20260505085006 54 9 2.0 11.0 0.00 0.31 0.00 48 1005.1
20260505084507 55 335 1.0 11.0 0.00 0.31 0.00 52 1004.8
20260505084008 55 285 1.0 4.0 0.00 0.31 0.00 53 1004.7
20260505083504 55 284 1.0 7.0 0.00 0.31 0.00 53 1004.6
20260505083007 55 286 2.0 7.0 0.00 0.31 0.00 52 1004.5
20260505082505 55 280 1.0 7.0 0.00 0.31 0.00 52 1004.3
20260505082007 55 286 0.0 3.0 0.00 0.31 0.00 53 1003.9
20260505081505 55 283 1.0 2.0 0.00 0.31 0.00 53 1003.7
20260505081006 55 283 1.0 4.0 0.00 0.31 0.00 53 1003.8
20260505080507 55 283 1.0 4.0 0.00 0.31 0.00 53 1003.6
20260505080012 55 285 1.0 4.0 0.00 0.31 0.00 53 1003.4
20260505075504 55 285 1.0 4.0 0.00 0.31 0.00 53 1003.3
20260505075005 55 275 1.0 4.0 0.00 0.31 0.00 53 1003.3
20260505074505 55 276 1.0 3.0 0.00 0.31 0.00 54 1003.1
20260505074009 55 275 0.0 3.0 0.00 0.31 0.00 53 1003.2
20260505073504 55 275 1.0 3.0 0.00 0.31 0.00 53 1003.2
20260505072005 56 275 1.0 6.0 0.00 0.31 0.00 52 1003.1
20260505071006 56 278 1.0 4.0 0.00 0.31 0.00 53 1002.7
20260505070005 56 277 0.0 3.0 0.00 0.31 0.00 52 1002.8
20260505065505 56 277 1.0 4.0 0.00 0.31 0.00 52 1002.7
20260505065006 56 277 1.0 4.0 0.00 0.31 0.00 51 1002.7
20260505064507 57 282 1.0 4.0 0.00 0.31 0.00 52 1002.6
20260505064006 57 285 1.0 5.0 0.00 0.31 0.00 52 1002.6
20260505063505 57 285 1.0 5.0 0.00 0.31 0.00 53 1002.6
20260505063004 57 293 1.0 4.0 0.00 0.31 0.00 52 1002.7
20260505062505 57 286 1.0 5.0 0.00 0.31 0.00 54 1002.5
20260505061005 57 280 1.0 4.0 0.00 0.31 0.00 55 1002.6
20260505060505 57 286 1.0 3.0 0.00 0.31 0.00 55 1002.7
20260505060010 57 286 0.0 3.0 0.00 0.31 0.00 54 1002.6
20260505055505 58 286 1.0 3.0 0.00 0.31 0.00 52 1002.5
20260505055005 58 286 1.0 4.0 0.00 0.31 0.00 52 1002.4
20260505054005 58 286 1.0 4.0 0.00 0.31 0.00 53 1002.6
20260505053505 58 283 1.0 5.0 0.00 0.31 0.00 52 1002.7
20260505052506 58 213 1.0 3.0 0.00 0.31 0.00 52 1002.3
20260505052006 58 257 0.0 2.0 0.00 0.31 0.00 54 1002.3
20260505051505 58 257 0.0 2.0 0.00 0.31 0.00 55 1002.2
20260505051006 58 257 0.0 5.0 0.00 0.31 0.00 53 1002.1
20260505050505 58 257 1.0 5.0 0.00 0.31 0.00 56 1002.1
20260505041506 60 235 1.0 3.0 0.00 0.31 0.31 69 1001.4
20260505041006 61 228 1.0 4.0 0.00 0.31 0.31 70 1001.4
20260505040506 61 227 1.0 4.0 0.00 0.31 0.31 69 1001.4
20260505035506 61 213 0.0 3.0 0.01 0.31 0.31 69 1001.3
20260505035005 61 213 0.0 3.0 0.01 0.31 0.31 70 1001.4
20260505034506 61 212 0.0 2.0 0.01 0.31 0.31 70 1001.5
20260505034006 61 212 1.0 4.0 0.01 0.31 0.31 70 1001.5
20260505033505 61 212 1.0 4.0 0.01 0.31 0.31 70 1001.3
20260505033006 61 211 1.0 4.0 0.01 0.31 0.31 70 1001.3
20260505032505 61 212 1.0 5.0 0.01 0.31 0.31 70 1001.1
20260505032006 61 212 0.0 3.0 0.01 0.31 0.31 71 1000.8
20260505031506 61 212 1.0 3.0 0.01 0.31 0.31 71 1000.8
20260505031006 61 212 1.0 4.0 0.01 0.31 0.31 72 1000.7
20260505030505 61 210 0.0 4.0 0.02 0.31 0.31 72 1000.7
20260505030010 61 202 0.0 4.0 0.02 0.31 0.31 72 1000.8
20260505025506 61 276 1.0 4.0 0.01 0.30 0.30 72 1001.0
20260505025006 61 276 2.0 7.0 0.01 0.30 0.30 73 1001.2
20260505024505 61 223 1.0 7.0 0.02 0.30 0.30 71 1001.1
20260505024006 61 209 1.0 3.0 0.02 0.30 0.30 72 1000.9
20260505023505 61 236 1.0 3.0 0.02 0.30 0.30 72 1000.8
20260505023005 61 232 0.0 3.0 0.03 0.30 0.30 72 1000.3
20260505022506 61 235 0.0 4.0 0.03 0.30 0.30 73 1000.2
20260505022012 61 235 0.0 4.0 0.04 0.30 0.30 72 1000.1
20260505021506 61 215 0.0 3.0 0.04 0.30 0.30 72 999.9
20260505021009 61 215 0.0 3.0 0.04 0.30 0.30 72 999.8
20260505020505 61 229 0.0 3.0 0.04 0.29 0.29 74 999.6
20260505020008 62 229 1.0 4.0 0.05 0.29 0.29 73 999.5
20260505015505 62 230 1.0 5.0 0.05 0.29 0.29 73 999.5
20260505014505 62 234 1.0 5.0 0.06 0.28 0.28 74 999.5
20260505014012 62 215 1.0 5.0 0.07 0.28 0.28 74 999.4
20260505013504 62 220 2.0 7.0 0.07 0.28 0.28 75 999.3
20260505013010 62 238 2.0 7.0 0.07 0.27 0.27 74 999.3
20260505012505 62 221 2.0 7.0 0.08 0.27 0.27 75 999.3
20260505012007 62 228 2.0 8.0 0.08 0.26 0.26 75 999.3
20260505011509 62 247 1.0 8.0 0.09 0.26 0.26 75 999.1
20260505011018 62 210 1.0 9.0 0.10 0.25 0.25 77 998.8
20260505010505 62 236 1.0 8.0 0.11 0.25 0.25 78 998.8
20260505010009 62 197 1.0 4.0 0.11 0.24 0.24 79 998.7
20260505005506 62 225 1.0 8.0 0.12 0.24 0.24 79 998.9
20260505005014 61 232 2.0 8.0 0.12 0.23 0.23 80 998.8
20260505004506 61 213 1.0 8.0 0.12 0.22 0.22 81 998.8
20260505003014 61 198 0.0 3.0 0.12 0.20 0.20 84 998.1
20260505002006 61 198 1.0 3.0 0.13 0.18 0.18 82 998.2
20260505001505 61 198 1.0 3.0 0.15 0.17 0.17 82 998.2
20260505001012 60 202 0.0 4.0 0.15 0.15 0.15 84 998.4
20260505000009 60 53 0.0 1.0 0.13 0.13 0.13 89 998.5
20260504235506 60 49 0.0 0.0 0.12 0.12 0.12 90 998.2
20260504235009 59 49 0.0 0.0 0.11 0.11 0.11 90 998.0
20260504234505 59 49 0.0 1.0 0.10 0.10 0.10 89 998.0
20260504234007 59 49 0.0 1.0 0.10 0.10 0.10 88 998.1
20260504233505 59 49 0.0 1.0 0.09 0.09 0.09 86 998.3
20260504233006 59 49 0.0 3.0 0.08 0.08 0.08 83 998.4
20260504232506 60 49 2.0 6.0 0.07 0.07 0.07 79 998.6
20260504232005 63 46 5.0 15.0 0.05 0.05 0.05 74 999.2
20260504231505 67 306 5.0 18.0 0.02 0.02 0.02 67 999.4
20260504231006 71 282 1.0 13.0 0.00 0.00 0.00 55 998.4
20260504230506 71 270 1.0 5.0 0.00 0.00 0.00 53 997.9
20260504225505 72 240 1.0 4.0 0.00 0.00 0.00 50 997.7
20260504225006 72 208 1.0 6.0 0.00 0.00 0.00 50 997.7
20260504224505 72 234 2.0 9.0 0.00 0.00 0.00 50 997.9
20260504224007 73 232 2.0 6.0 0.00 0.00 0.00 48 998.0
20260504223006 76 234 3.0 13.0 0.00 0.00 0.00 44 998.2
20260504222505 77 160 3.0 14.0 0.00 0.00 0.00 42 998.1
20260504222006 77 203 2.0 10.0 0.00 0.00 0.00 42 998.1
20260504221505 76 238 3.0 7.0 0.00 0.00 0.00 41 998.1
20260504220008 79 196 3.0 8.0 0.00 0.00 0.00 37 997.9
20260504215505 80 229 2.0 10.0 0.00 0.00 0.00 36 997.9
20260504215006 80 246 1.0 5.0 0.00 0.00 0.00 36 997.9
20260504214505 81 212 2.0 14.0 0.00 0.00 0.00 35 998.0
20260504214006 81 197 3.0 14.0 0.00 0.00 0.00 35 998.1
20260504213504 81 218 3.0 11.0 0.00 0.00 0.00 35 998.1
20260504213008 81 246 3.0 11.0 0.00 0.00 0.00 35 998.1
20260504212507 80 240 3.0 12.0 0.00 0.00 0.00 35 998.2
20260504212009 79 228 3.0 12.0 0.00 0.00 0.00 35 998.3
20260504211506 80 205 3.0 11.0 0.00 0.00 0.00 38 998.4
20260504211008 79 279 3.0 11.0 0.00 0.00 0.00 34 998.4
20260504210005 80 262 3.0 15.0 0.00 0.00 0.00 35 998.4
20260504205505 80 248 4.0 15.0 0.00 0.00 0.00 36 998.6
20260504205007 80 237 4.0 11.0 0.00 0.00 0.00 37 998.4
20260504204505 79 244 3.0 12.0 0.00 0.00 0.00 37 998.6
20260504204005 78 286 3.0 9.0 0.00 0.00 0.00 36 998.6
20260504203504 78 232 3.0 9.0 0.00 0.00 0.00 35 998.6
20260504203006 79 264 3.0 9.0 0.00 0.00 0.00 34 998.6
20260504202008 81 310 3.0 10.0 0.00 0.00 0.00 37 998.7
20260504201507 81 174 2.0 10.0 0.00 0.00 0.00 36 998.7
20260504201010 80 245 2.0 8.0 0.00 0.00 0.00 38 999.1
20260504200507 80 170 3.0 10.0 0.00 0.00 0.00 37 999.1
20260504200012 79 217 3.0 10.0 0.00 0.00 0.00 38 999.2
20260504195505 79 242 2.0 9.0 0.00 0.00 0.00 36 999.3
20260504195009 79 198 2.0 9.0 0.00 0.00 0.00 40 999.3
20260504194508 78 244 3.0 9.0 0.00 0.00 0.00 41 999.3
20260504194005 77 227 3.0 9.0 0.00 0.00 0.00 37 999.5
20260504193507 78 195 3.0 9.0 0.00 0.00 0.00 37 999.5
20260504193009 78 255 3.0 11.0 0.00 0.00 0.00 37 999.6
20260504192507 77 184 4.0 11.0 0.00 0.00 0.00 35 999.6
20260504192007 78 203 4.0 13.0 0.00 0.00 0.00 35 999.8
20260504191506 78 270 3.0 13.0 0.00 0.00 0.00 36 999.7
20260504191010 78 203 3.0 9.0 0.00 0.00 0.00 33 999.7
20260504190506 78 252 4.0 18.0 0.00 0.00 0.00 34 999.8
20260504190010 78 188 3.0 18.0 0.00 0.00 0.00 33 999.9
20260504185505 78 267 3.0 11.0 0.00 0.00 0.00 33 1000.0
20260504185006 77 185 4.0 10.0 0.00 0.00 0.00 33 999.8
20260504184506 77 245 3.0 10.0 0.00 0.00 0.00 32 999.9
20260504184008 78 198 3.0 9.0 0.00 0.00 0.00 33 999.8
20260504183506 78 261 2.0 7.0 0.00 0.00 0.00 36 999.7
20260504183006 77 210 2.0 7.0 0.00 0.00 0.00 34 999.8
20260504182507 77 93 2.0 9.0 0.00 0.00 0.00 35 999.9
20260504182007 77 277 2.0 9.0 0.00 0.00 0.00 37 1000.0
20260504181506 76 263 2.0 7.0 0.00 0.00 0.00 35 1000.1
20260504181008 76 264 2.0 8.0 0.00 0.00 0.00 36 1000.3
20260504180507 76 207 2.0 8.0 0.00 0.00 0.00 36 1000.4
20260504180008 75 203 3.0 12.0 0.00 0.00 0.00 39 1000.4
20260504175505 75 253 3.0 9.0 0.00 0.00 0.00 37 1000.5
20260504174506 75 202 2.0 9.0 0.00 0.00 0.00 37 1000.6
20260504174007 75 212 3.0 9.0 0.00 0.00 0.00 37 1000.7
20260504173006 75 202 2.0 8.0 0.00 0.00 0.00 38 1000.8
20260504172506 75 246 2.0 8.0 0.00 0.00 0.00 38 1000.8
20260504171005 74 209 2.0 7.0 0.00 0.00 0.00 39 1001.1
20260504170506 74 229 2.0 8.0 0.00 0.00 0.00 41 1001.1
20260504151015 69 208 2.0 7.0 0.00 0.00 0.00 46 1002.5
20260504150505 68 232 1.0 7.0 0.00 0.00 0.00 47 1002.4
20260504141005 62 195 1.0 4.0 0.00 0.00 0.00 57 1003.0
20260504140506 62 210 1.0 4.0 0.00 0.00 0.00 59 1003.1
20260504130505 55 223 1.0 5.0 0.00 0.00 0.00 69 1003.7